Hourly Data Report for September 03, 2017

All times are specified in Local Standard Time (LST). Add 1 hour to adjust for Daylight Saving Time where and when it is observed.

WOODSTOCK NEWBRIDGE
NEW BRUNSWICK

46°09'08.000" N
67°32'34.000" W
154.00 m
8105603
71606
EWD

Download Data

Hourly Data (September 2017)
Hourly Data Report for September 3, 2017
Temp Definition
°C
Dew Point Temp Definition
°C
Rel Hum Definition
%
Wind Dir Definition
10's deg

Wind Spd Definition
km/h
Visibility Definition
km
Stn Press Definition
kPa
Hmdx Definition


Wind Chill Definition


Weather Definition


TIME
00:00 5.6 4.6 93   0   100.51     LegendNANA
01:00 5.2 4.4 95   0   100.49     LegendNANA
02:00 4.5 3.5 94   0   100.52     LegendNANA
03:00 4.7 4.2 97 35 2   100.49     LegendNANA
04:00 4.5 3.8 95 0 1   100.52     LegendNANA
05:00 4.4 3.7 95   0   100.49     LegendNANA
06:00 7.1 6.8 98 6 2   100.45     LegendNANA
07:00 7.6 7.0 96   0   100.52     LegendNANA
08:00 11.0 9.4 90 6 1   100.52     LegendNANA
09:00 14.0 9.5 74 11 4   100.51     LegendNANA
10:00 16.1 8.7 62 11 13   100.38     LegendNANA
11:00 17.2 8.7 57 13 14   100.42     LegendNANA
12:00 20.0 9.2 50 15 12   100.32     LegendNANA
13:00 20.3 7.4 43 14 15   100.20     LegendNANA
14:00 21.2 8.2 43 12 19   100.11     LegendNANA
15:00 19.9 7.7 45 13 17   100.06     LegendNANA
16:00 18.5 6.9 47 11 20   99.99     LegendNANA
17:00 17.6 7.0 50 12 21   99.92     LegendNANA
18:00 15.7 6.8 55 12 17   99.83     LegendNANA
19:00 14.7 8.1 65 12 8   99.71     LegendNANA
20:00 14.5 8.6 68 11 11   99.63     LegendNANA
21:00 12.6 10.2 86 10 10   99.49     LegendNANA
22:00 12.5 10.1 85 8 6   99.40     LegendNANA
23:00 12.0 10.2 89 9 11   99.17     LegendNANA

Notes on Data Quality.

Legend

  • E = Estimated
  • M = Missing
  • NA = Not Available
  • ‡ = Partner data that is not subject to review by the National Climate Archives
Date modified: